sat.trackr.live / text

‹ back to catalog

TOMORROW-S2

NORAD 60485 · 2024-149T

PAYLOAD ACTIVE UNKNOWN

§ Identity

Operator
Country
US
Launch date
2024-08-16
Launch site
AFWTR
Launch vehicle
Mass (kg)
RCS (m²)

External: N2YO · Heavens-Above · Gunter

§ Orbital elements

Epoch: 2026-09-22T17:25:08.539392Z

Period
93.87 min
Inclination
97.3762°
Eccentricity
0.0001105
Mean motion
15.34003034 rev/d
Perigee alt
463.1 km
Apogee alt
464.6 km
Semi-major
6,842.0 km
B*
1.7094e-4
RAAN
346.5262°
Arg perigee
300.1595°
Mean anomaly
59.9538°
Rev number
11,703

§ Raw data

TOMORROW-S21 60485U 24149T   26265.72579328  .00005543  00000+0  17094-3 0  99972 60485  97.3762 346.5262 0001105 300.1595  59.9538 15.34003034117031

JSON: /api/v1/satellites/60485 · /tle

For live sub-satellite position, see the globe view (requires WebGL).

§ Visibility from observer

Set your observer location to see the next 7 days of passes ≥ 10°. The values pass through the URL so the page stays shareable.

No JS? Fill the form by hand. The geolocation button needs JavaScript.

§ Radio — SatNOGS DB

ModeDescriptionDownlinkUplink
OQPSK Mode X - OQPSK 8.030 GHz

1 transmitter · refreshed weekly from db.satnogs.org